Home > Weather > Germering > Past weeks

Flag for Germany Weather for the Past 2 Weeks in Germering, Bavaria, Germany

Now
32 °F

Partly sunny.


Feels Like: 32 °F
Forecast: 32 / 50 °F
Wind: 2 mph from South

Location: Landsberg

Current Time: Feb 6, 2016 at 8:52:04 AM

Latest Report: Feb 6, 2016 at 8:20 AM


Visibility: N/A

Pressure: 30.12 "Hg (28.16 "Hg at 538m altitude)

Humidity: 87%

Dew point: 28 °F

Location of GermeringLocation

Historic Weather in Germering — Graph

°F

Germering Temperature Yesterday

Maximum temperature yesterday: 45 °F (at 3:20 PM)
Minimum temperature yesterday: 32 °F (at 10:20 PM)
Average temperature yesterday: 38 °F

High & Low Weather Summary for the Past Weeks

 TemperatureHumidityPressure
High57 °F (Jan 26, 3:20 PM)100% (Jan 22, 7:20 AM)30.63 "Hg (Jan 22, 7:20 AM)
Low12 °F (Jan 22, 10:20 PM)44% (Jan 25, 2:20 PM)29.89 "Hg (Jan 30, 10:20 PM)
Average40 °F79%30.25 "Hg
* Reported Jan 22 7:20 AM — Feb 6 7:20 AM, Germering, Weather by CustomWeather, © 2016

Note: Actual official high and low records may vary slightly from our data, if they occured in-between our weather recording intervals... More about our weather records

Advertising

Germering Weather History for the Previous 24 Hours

 ConditionsComfort  
Time TempWeatherWind HumidityBarometerVisibility
7:20 AM
Sat, Feb 6
30 °FPassing clouds.2 mph93%30.12 "HgN/A
6:20 AM32 °FPassing clouds.2 mph87%30.12 "HgN/A
5:20 AM34 °FChilly.3 mph87%30.15 "HgN/A
4:20 AM30 °FChilly.5 mph93%30.15 "HgN/A
3:20 AM30 °FChilly.6 mph100%30.18 "HgN/A
2:20 AM30 °FPassing clouds.3 mph100%30.18 "HgN/A
1:20 AM32 °FPassing clouds.1 mph93%30.18 "HgN/A
12:20 AM34 °FPassing clouds.6 mph93%30.21 "HgN/A
11:20 PM
Fri, Feb 5
34 °FPassing clouds.7 mph93%30.21 "HgN/A
10:20 PM32 °FPassing clouds.5 mph93%30.24 "HgN/A
9:20 PM34 °FPassing clouds.5 mph93%30.24 "HgN/A
8:20 PM36 °FPassing clouds.5 mph93%30.27 "HgN/A
7:20 PM36 °FPassing clouds.6 mph93%30.27 "HgN/A
6:20 PM37 °FPassing clouds.3 mph93%30.30 "HgN/A
5:20 PM43 °FScattered clouds.7 mph81%30.30 "HgN/A
4:20 PM45 °FPartly sunny.9 mph71%30.30 "HgN/A
3:20 PM45 °FPartly sunny.8 mph66%30.30 "HgN/A
2:20 PM43 °FPartly sunny.12 mph76%30.30 "HgN/A
1:20 PM43 °FBroken clouds.14 mph71%30.33 "HgN/A
12:20 PM41 °FPartly sunny.12 mph76%30.36 "HgN/A
12:00 PM41 °FPartly sunny.12 mph76%30.36 "HgN/A
11:20 AM41 °FBroken clouds.13 mph81%30.36 "HgN/A
10:20 AM39 °FPartly sunny.9 mph87%30.36 "HgN/A
9:20 AM37 °FPartly sunny.6 mph93%30.36 "HgN/A
8:20 AM37 °FBroken clouds.7 mph87%30.36 "HgN/A
Weather by CustomWeather, © 2016

See weather overviewHow to use our weather pages